Weather History for Faith, SD

Change the Weather History Date:

Monday, February 25, 2013

  Actual Average Record
Temperature  
Mean Temperature 31 °F 26 °F  
Max Temperature 46 °F 36 °F 63 °F (1999)
Min Temperature 15 °F 17 °F -20 °F (2011)
Degree Days  
Heating Degree Days 34 39  
Month to date heating degree days 923 1046  
Since 1 July heating degree days 5239 5575  
Cooling Degree Days 0 0  
Month to date cooling degree days 0 0  
Year to date cooling degree days 0 0  
Moisture  
Dew Point 18 °F    
Average Humidity 56    
Maximum Humidity 88    
Minimum Humidity 23    
Precipitation  
Precipitation 0.00 in 0.01 in 0.15 in (2009)
Month to date precipitation 0.19 0.39  
Year to date precipitation 0.57 0.59  
Sea Level Pressure  
Sea Level Pressure 30.03 in    
Wind  
Wind Speed 12 mph (South)    
Max Wind Speed 20 mph    
Max Gust Speed 25 mph    
T = Trace of Precipitation, MM = Missing Value Source: NWS Daily Summary

Daily Weather History Graph

Daily Weather History Graph

Search for Another Location

Airport:

Trip Planner

Search our weather history database for the weather conditions in past years. The results will help you decide how hot, cold, wet, or windy it might be!

Date:

Astronomy

Feb. 25, 2013 Rise Set
Actual Time 6:32 AM MST 5:30 PM MST
Civil Twilight 6:02 AM MST 6:00 PM MST
Nautical Twilight 5:28 AM MST 6:34 PM MST
Astronomical Twilight 4:54 AM MST 7:08 PM MST
Moon 5:49 PM MST (2/25) 6:01 AM MST (2/25)
Length of Visible Light 11h 57m
Length of Day
10h 58m
Full, 100% of the Moon is Illuminated
Feb 25
Full
Feb 25
Full
Mar 4
Last Quarter
Mar 11
New
Mar 19
First Quarter

Hourly Weather History & Observations

Time (MST) Temp. Windchill Dew Point Humidity Pressure Visibility Wind Dir Wind Speed Gust Speed Precip Events Conditions
12:56 AM 21.9 °F 15.7 °F 17.1 °F 82% 30.17 in - WNW 4.6 mph - N/A   Unknown
1:56 AM 21.9 °F 15.7 °F 17.1 °F 82% 30.14 in - West 4.6 mph - N/A   Unknown
2:56 AM 21.9 °F 17.2 °F 16.0 °F 78% 30.14 in - WSW 3.5 mph - N/A   Unknown
3:56 AM 21.9 °F 15.7 °F 16.0 °F 78% 30.13 in - SW 4.6 mph - N/A   Unknown
4:56 AM 21.0 °F 14.6 °F 16.0 °F 81% 30.13 in - WSW 4.6 mph - N/A   Unknown
5:56 AM 19.0 °F 11.1 °F 14.0 °F 81% 30.15 in - SW 5.8 mph - N/A   Unknown
6:56 AM 15.1 °F 2.5 °F 12.0 °F 88% 30.14 in - SSE 10.4 mph - N/A   Unknown
7:56 AM 21.0 °F 10.6 °F 17.1 °F 85% 30.13 in - SSW 9.2 mph - N/A   Unknown
8:56 AM 26.1 °F 19.4 °F 21.0 °F 81% 30.12 in - SW 5.8 mph - N/A   Unknown
9:56 AM 33.1 °F 26.9 °F 25.0 °F 72% 30.10 in - South 6.9 mph - N/A   Unknown
10:56 AM 37.9 °F 29.6 °F 23.0 °F 55% 30.05 in - SSW 13.8 mph - N/A   Unknown
11:56 AM 41.0 °F 33.1 °F 21.0 °F 45% 30.03 in - South 15.0 mph - N/A   Unknown
12:56 PM 43.0 °F 34.8 °F 15.1 °F 32% 29.99 in - South 18.4 mph - N/A   Unknown
1:56 PM 45.0 °F 38.5 °F 16.0 °F 31% 29.96 in - South 13.8 mph - N/A   Unknown
2:56 PM 46.0 °F 38.8 °F 10.9 °F 24% 29.94 in - South 18.4 mph - N/A   Unknown
3:56 PM 45.0 °F 38.2 °F 12.0 °F 26% 29.92 in - South 15.0 mph 21.9 mph N/A   Unknown
4:56 PM 41.0 °F 33.1 °F 19.0 °F 41% 29.93 in - SSE 15.0 mph - N/A   Unknown
5:56 PM 34.0 °F 24.2 °F 19.9 °F 56% 29.96 in - SSE 15.0 mph - N/A   Unknown
6:56 PM 32.0 °F 21.2 °F 21.9 °F 66% 29.96 in - SSE 16.1 mph - N/A   Unknown
7:56 PM 30.0 °F 19.1 °F 21.9 °F 72% 29.94 in - SSE 15.0 mph - N/A   Unknown
8:56 PM 28.0 °F 16.5 °F 21.9 °F 78% 29.93 in - SSE 15.0 mph - N/A   Unknown
9:56 PM 27.0 °F 14.3 °F 21.0 °F 78% 29.92 in - SSE 17.3 mph - N/A   Unknown
10:56 PM 26.1 °F 14.5 °F 19.9 °F 78% 29.91 in - SSE 13.8 mph - N/A   Unknown
11:56 PM 23.0 °F 10.1 °F 19.0 °F 85% 29.89 in - SSE 15.0 mph - N/A   Unknown